Date String (YYYY-MM-DD hh:mm:ss) UTC,Instrument flags,absolute air pressure of the measurement (hPa),sample flow rate (lpm),inlet stack bypass flow (lpm),air temperature of the measurement (°C),ambient temperature measured by the external sensor (°C),aerosol sample conditioner tube jacket temperature (°C),OPC LED temperature (°C),internal box temperature (°C),relative humidity of the measurement (%),span deviation,mass concentration of particles derived from Lorenz-Mie calculation of OPC scattering (μg/m³),mass concentration of particles derived from Lorenz-Mie calculation of OPC scattering (μg/m³),mass concentration of particles derived from Lorenz-Mie calculation of OPC scattering (μg/m³)
DateTimeUTC,F1_M11,P_M11,Q1_M11,Q2_M11,T1_M11,T2_M11,T3_M11,T4_M11,T5_M11,U1_M11,ZSPAN_M11,X2_M11,X0_M11,X1_M11
2024-05-04 09:00:00,SystemResetWarning,0832.2,5.00,000.00,020.8,020.2,000.0,029.4,022.5,021.1,0000.0,0002.26,0004.29,0001.93
2024-05-04 09:01:00,SystemResetWarning,0832.1,5.00,000.00,020.8,020.2,000.0,029.4,022.5,020.9,0000.0,0002.23,0004.20,0001.91
2024-05-04 09:02:00,SystemResetWarning,0832.2,5.00,000.00,020.8,020.2,000.0,029.3,022.4,020.7,0000.0,0002.17,0003.96,0001.88
2024-05-04 09:03:00,SystemResetWarning,0832.1,5.00,000.00,020.8,020.2,000.0,029.3,022.4,020.7,0000.0,0002.16,0003.99,0001.87
2024-05-04 09:04:00,SystemResetWarning,0832.1,5.00,000.00,020.8,020.2,000.0,029.3,022.4,020.6,0000.0,0002.13,0003.96,0001.84
2024-05-04 09:05:00,SystemResetWarning,0832.0,5.00,000.00,020.8,020.2,000.0,029.3,022.4,020.7,0000.0,0002.11,0003.95,0001.81
2024-05-04 09:06:00,SystemResetWarning,0832.0,5.01,000.00,020.8,020.2,000.0,029.3,022.4,020.6,0000.0,0002.04,0003.86,0001.77
2024-05-04 09:07:00,SystemResetWarning,0831.7,5.00,000.00,020.8,020.2,000.0,029.3,022.4,020.5,0000.0,0002.02,0003.25,0001.74
2024-05-04 09:08:00,SystemResetWarning,0831.8,5.00,000.00,020.8,020.2,000.0,029.3,022.4,020.5,0000.0,0001.97,0002.62,0001.69
2024-05-04 09:09:00,SystemResetWarning,0831.9,5.01,000.00,020.7,020.2,000.0,029.2,022.4,020.6,0000.0,0001.93,0002.75,0001.66
2024-05-04 09:10:00,SystemResetWarning,0832.1,5.00,000.00,020.7,020.1,000.0,029.2,022.3,020.8,0000.0,0001.90,0002.72,0001.62
2024-05-04 09:11:00,SystemResetWarning,0832.2,5.00,000.00,020.7,020.1,000.0,029.2,022.3,020.9,0000.0,0001.85,0002.67,0001.58
2024-05-04 09:12:00,SystemResetWarning,0831.9,5.00,000.00,020.7,020.1,000.0,029.2,022.4,020.9,0000.0,0001.79,0002.57,0001.54
2024-05-04 09:13:00,SystemResetWarning,0831.7,5.01,000.00,020.7,020.2,000.0,029.2,022.4,020.9,0000.0,0001.77,0002.59,0001.51
2024-05-04 09:14:00,SystemResetWarning,0831.7,5.00,000.00,020.7,020.2,000.0,029.2,022.4,020.9,0000.0,0001.75,0002.55,0001.48
2024-05-04 09:15:00,SystemResetWarning,0831.7,5.00,000.00,020.7,020.2,000.0,029.2,022.4,020.9,0000.0,0001.74,0003.86,0001.46
2024-05-04 09:16:00,SystemResetWarning,0831.7,5.00,000.00,020.7,020.2,000.0,029.2,022.4,020.9,0000.0,0001.73,0004.90,0001.45
2024-05-04 09:17:00,SystemResetWarning,0831.6,4.99,000.00,020.7,020.2,000.0,029.2,022.3,020.9,0000.0,0001.71,0004.92,0001.43
2024-05-04 09:18:00,SystemResetWarning,0831.6,4.99,000.00,020.7,020.1,000.0,029.2,022.3,020.8,0000.0,0001.68,0004.98,0001.42
2024-05-04 09:19:00,SystemResetWarning,0831.7,5.01,000.00,020.7,020.2,000.0,029.2,022.4,020.9,0000.0,0001.67,0004.94,0001.41
2024-05-04 09:20:00,SystemResetWarning,0831.7,5.01,000.00,020.7,020.2,000.0,029.2,022.4,021.0,0000.0,0001.64,0004.73,0001.39
2024-05-04 09:21:00,SystemResetWarning,0831.7,4.98,000.00,020.7,020.2,000.0,029.1,022.4,021.0,0000.0,0001.60,0004.69,0001.37
2024-05-04 09:22:00,SystemResetWarning,0831.7,4.99,000.00,020.7,020.2,000.0,029.1,022.4,020.9,0000.0,0001.61,0004.79,0001.36
2024-05-04 09:23:00,SystemResetWarning,0831.7,5.02,000.00,020.7,020.2,000.0,029.1,022.4,021.0,0000.0,0001.65,0004.86,0001.36
2024-05-04 09:24:00,SystemResetWarning,0831.7,5.00,000.00,020.7,020.2,000.0,029.1,022.3,021.0,0000.0,0001.64,0004.83,0001.34
2024-05-04 09:25:00,SystemResetWarning,0831.7,5.00,000.00,020.7,020.1,000.0,029.1,022.3,021.1,0000.0,0001.62,0004.76,0001.32
2024-05-04 09:26:00,SystemResetWarning,0831.9,5.00,000.00,020.7,020.1,000.0,029.1,022.3,021.1,0000.0,0001.61,0003.60,0001.31
2024-05-04 09:27:00,SystemResetWarning,0832.0,5.00,000.00,020.6,020.1,000.0,029.1,022.2,021.1,0000.0,0001.58,0002.36,0001.29
2024-05-04 09:28:00,SystemResetWarning,0831.7,5.00,000.00,020.6,020.1,000.0,029.1,022.3,021.3,0000.0,0001.58,0002.36,0001.27
2024-05-04 09:29:00,SystemResetWarning,0831.7,5.01,000.00,020.6,020.1,000.0,029.1,022.3,021.2,0000.0,0001.51,0002.09,0001.26
2024-05-04 09:30:00,SystemResetWarning,0831.7,5.00,000.00,020.6,020.1,000.0,029.1,022.2,021.3,0000.0,0001.50,0002.10,0001.24
2024-05-04 09:31:00,SystemResetWarning,0831.7,5.00,000.00,020.6,020.1,000.0,029.1,022.2,021.4,0000.0,0001.50,0002.18,0001.23
2024-05-04 09:32:00,SystemResetWarning,0831.7,5.00,000.00,020.6,020.0,000.0,029.0,022.2,021.5,0000.0,0001.50,0002.34,0001.22
2024-05-04 09:33:00,SystemResetWarning,0831.7,5.00,000.00,020.6,020.0,000.0,029.0,022.2,021.5,0000.0,0001.49,0002.54,0001.21
2024-05-04 09:34:00,SystemResetWarning,0831.7,5.00,000.00,020.6,020.0,000.0,029.0,022.2,021.5,0000.0,0001.45,0003.10,0001.18
2024-05-04 09:35:00,SystemResetWarning,0831.6,5.00,000.00,020.6,020.0,000.0,029.0,022.2,021.0,0000.0,0001.43,0003.06,0001.17
2024-05-04 09:36:00,SystemResetWarning,0831.6,5.01,000.00,020.6,020.0,000.0,029.0,022.1,020.7,0000.0,0001.42,0003.17,0001.15
2024-05-04 09:37:00,SystemResetWarning,0831.6,5.00,000.00,020.5,019.9,000.0,029.0,022.1,020.7,0000.0,0001.38,0003.16,0001.13
2024-05-04 09:38:00,SystemResetWarning,0831.6,5.00,000.00,020.5,019.9,000.0,029.0,022.1,020.6,0000.0,0001.42,0003.71,0001.11
2024-05-04 09:39:00,SystemResetWarning,0831.6,5.01,000.00,020.5,019.9,000.0,029.0,022.1,020.5,0000.0,0001.41,0004.32,0001.10
2024-05-04 09:40:00,SystemResetWarning,0831.6,5.00,000.00,020.5,019.9,000.0,029.0,022.1,020.5,0000.0,0001.41,0004.33,0001.09
2024-05-04 09:41:00,SystemResetWarning,0831.6,5.01,000.00,020.5,019.9,000.0,029.0,022.1,020.3,0000.0,0001.40,0004.33,0001.08
2024-05-04 09:42:00,SystemResetWarning,0831.6,5.00,000.00,020.5,019.9,000.0,029.0,022.0,020.2,0000.0,0001.37,0004.39,0001.06
2024-05-04 09:43:00,SystemResetWarning,0831.6,5.01,000.00,020.5,019.9,000.0,028.9,022.1,020.2,0000.0,0001.37,0004.39,0001.04
2024-05-04 09:44:00,SystemResetWarning,0831.6,5.00,000.00,020.5,019.9,000.0,028.9,022.1,020.0,0000.0,0001.35,0004.31,0001.02
2024-05-04 09:45:00,SystemResetWarning,0831.6,5.00,000.00,020.4,019.8,000.0,028.9,022.0,020.0,0000.0,0001.31,0003.34,0001.01
2024-05-04 09:46:00,SystemResetWarning,0831.6,5.00,000.00,020.4,019.8,000.0,028.9,022.0,019.9,0000.0,0001.30,0003.36,0001.00
2024-05-04 09:47:00,SystemResetWarning,0831.6,4.99,000.00,020.4,019.8,000.0,028.9,022.0,019.8,0000.0,0001.28,0003.31,0000.99
2024-05-04 09:48:00,SystemResetWarning,0831.6,4.99,000.00,020.4,019.8,000.0,028.9,022.0,020.0,0000.0,0001.31,0003.33,0000.98
2024-05-04 09:49:00,SystemResetWarning,0831.7,5.01,000.00,020.4,019.8,000.0,028.9,022.0,019.9,0000.0,0001.30,0003.23,0000.99
2024-05-04 09:50:00,SystemResetWarning,0831.6,5.01,000.00,020.4,019.8,000.0,028.9,022.0,019.8,0000.0,0001.27,0002.17,0000.98
2024-05-04 09:51:00,SystemResetWarning,0831.6,5.00,000.00,020.4,019.8,000.0,028.8,022.0,019.9,0000.0,0001.26,0003.46,0000.97
2024-05-04 09:52:00,SystemResetWarning,0831.6,4.99,000.00,020.4,019.8,000.0,028.8,022.0,019.9,0000.0,0001.27,0003.51,0000.96
2024-05-04 09:53:00,SystemResetWarning,0831.6,4.99,000.00,020.4,019.8,000.0,028.8,022.0,020.0,0000.0,0001.31,0003.63,0000.95
2024-05-04 09:54:00,SystemResetWarning,0831.6,5.01,000.00,020.4,019.8,000.0,028.8,022.0,019.9,0000.0,0001.30,0003.54,0000.96
2024-05-04 09:55:00,SystemResetWarning,0831.6,5.01,000.00,020.4,019.9,000.0,028.8,022.1,019.9,0000.0,0001.28,0003.51,0000.95
2024-05-04 09:56:00,SystemResetWarning,0831.6,4.99,000.00,020.4,019.9,000.0,028.8,022.1,020.1,0000.0,0001.29,0003.56,0000.95
2024-05-04 09:57:00,SystemResetWarning,0831.6,4.99,000.00,020.4,019.9,000.0,028.9,022.1,020.3,0000.0,0001.29,0003.54,0000.95
2024-05-04 09:58:00,SystemResetWarning,0831.6,5.00,000.00,020.4,019.9,000.0,028.9,022.2,020.2,0000.0,0001.28,0003.51,0000.94
2024-05-04 09:59:00,SystemResetWarning,0831.6,5.01,000.00,020.5,020.0,000.0,028.9,022.3,020.1,0000.0,0001.24,0003.46,0000.94
